TimePDT,TemperatureF,Dew PointF,Humidity,Sea Level PressureIn,VisibilityMPH,Wind Direction,Wind SpeedMPH,Gust SpeedMPH,PrecipitationIn,Events,Conditions,WindDirDegrees,DateUTC
12:00 AM,49.3,38.1,65,29.73,-9999.0,ESE,5.8,-,N/A,,Unknown,120,2012-10-12 07:00:00
1:00 AM,48.7,38.1,67,29.71,-9999.0,ESE,9.2,-,N/A,,Unknown,110,2012-10-12 08:00:00
2:00 AM,49.6,38.3,65,29.69,-9999.0,ESE,11.5,-,N/A,,Unknown,110,2012-10-12 09:00:00
4:00 AM,48.7,38.3,67,29.69,-9999.0,ESE,8.1,-,N/A,,Unknown,110,2012-10-12 11:00:00
5:00 AM,49,38,57,29.69,,ESE,5.8,,,,,110,2012-10-12 12:00:00
6:00 AM,50.0,38.3,64,29.69,-9999.0,East,8.1,-,N/A,,Unknown,100,2012-10-12 13:00:00
7:00 AM,49.8,39.0,66,29.69,-9999.0,ESE,9.2,-,N/A,,Unknown,110,2012-10-12 14:00:00
8:00 AM,48.4,39.4,71,29.71,-9999.0,East,3.5,-,N/A,,Unknown,100,2012-10-12 15:00:00
10:00 AM,54.5,41.2,61,29.72,-9999.0,East,3.5,-,N/A,,Unknown,80,2012-10-12 17:00:00
11:00 AM,59,42,41,29.72,,East,1.2,,,,,100,2012-10-12 18:00:00
11:00 AM,58.8,41.7,53,29.72,-9999.0,East,1.2,-,N/A,,Unknown,100,2012-10-12 18:00:00
12:00 PM,64.8,42.3,44,29.71,-9999.0,West,2.3,-,N/A,,Unknown,270,2012-10-12 19:00:00
1:00 PM,62.4,40.5,44,29.71,-9999.0,NNW,2.3,-,N/A,,Unknown,330,2012-10-12 20:00:00
2:00 PM,64.8,41.0,42,29.70,-9999.0,NNW,1.2,-,N/A,,Unknown,330,2012-10-12 21:00:00
3:00 PM,65.1,42.4,44,29.71,-9999.0,WNW,2.3,-,N/A,,Unknown,290,2012-10-12 22:00:00
5:00 PM,61,44,41,29.74,,NW,2.3,,,,,310,2012-10-13 00:00:00
5:00 PM,61.2,43.5,52,29.74,-9999.0,NW,2.3,-,N/A,,Unknown,310,2012-10-13 00:00:00
6:00 PM,59.4,44.1,57,29.75,-9999.0,NNE,1.2,-,N/A,,Unknown,30,2012-10-13 01:00:00
7:00 PM,61.2,41.5,48,29.77,-9999.0,West,3.5,-,N/A,,Unknown,280,2012-10-13 02:00:00
8:00 PM,57.2,46.4,67,29.81,-9999.0,WNW,2.3,-,N/A,,Unknown,290,2012-10-13 03:00:00
9:00 PM,56.8,45.7,66,29.80,-9999.0,ESE,2.3,-,N/A,,Unknown,110,2012-10-13 04:00:00
10:00 PM,55.4,45.9,70,29.81,-9999.0,ENE,2.3,-,N/A,,Unknown,60,2012-10-13 05:00:00
11:00 PM,55,46,64,29.81,,North,1.2,,,,,350,2012-10-13 06:00:00
11:00 PM,54.9,46.2,73,29.81,-9999.0,North,1.2,-,N/A,,Unknown,350,2012-10-13 06:00:00